Terminal Aerodrome Forecast
Issued by NWS Cleveland, OH

Home | Current Version | Previous Version | Text Only | Print | Product List | Glossary Off
Versions: 1 2 3 4 5 6 7 8 9 10 11 12 13 14 15 16

207
FTUS41 KCLE 221134
TAFTOL
TAF
KTOL 221134Z 2212/2312 20006KT P6SM SCT080 BKN120
     FM221700 22014G22KT P6SM BKN150
     FM230000 23010KT P6SM BKN080
     FM230600 20013KT P6SM BKN024
     FM230900 22012G20KT P6SM -SHRA BKN010 OVC020=

USA.gov is the U.S. government's official web portal to all federal, state and local government web resources and services.